Wind_Speed
31 30 28 24 22 21 19 19 19 18 17 17 17 16 15 17 18 18 18 18 17 14 12 10 8 7 6 7 11 5 3 6 16 15 11 12 13 14 12 12 15 12 4 5 3 10 8
36 32 31 27 25 23 20 19 19 18 17 18 18 16 15 16 16 17 16 16 15 12 10 7 7 6 5 11 2 1 6 8 12 14 11 12 8 9 8 9 13 11 13 4 8 10 3
38 38 33 29 29 25 22 20 19 17 17 18 17 16 15 15 16 16 15 14 12 9 8 6 5 7 9 16 1 3 2 5 11 13 11 11 9 7 4 6 10 4 6 5 8 11 6
29 40 39 32 30 28 24 22 20 19 17 18 17 15 15 15 15 15 13 12 9 8 7 5 4 5 9 5 7 9 6 5 11 14 11 7 10 11 10 4 7 10 11 9 9 17 16
30 30 40 35 31 32 27 24 22 19 18 18 17 15 15 14 14 14 10 10 7 7 4 4 3 3 7 6 6 3 6 3 6 8 9 6 6 10 10 12 9 11 12 8 6 11 10
32 31 34 38 36 34 30 26 23 21 20 19 17 15 14 13 13 12 6 6 4 6 4 6 6 6 9 9 5 3 5 8 4 8 8 6 9 7 10 8 8 8 15 15 14 10 13
38 33 31 39 39 36 31 28 25 22 20 19 17 15 14 13 12 9 4 2 3 4 10 14 2 8 4 2 5 6 6 8 8 7 7 8 8 11 11 9 5 10 3 7 13 4 9
43 38 35 31 41 37 32 31 28 23 21 20 17 15 14 13 11 9 10 8 7 3 8 20 17 13 13 4 7 9 7 11 10 8 15 7 11 9 5 5 12 8 5 11 8 9 6
41 38 34 36 36 37 35 34 30 25 22 20 19 16 13 13 12 13 16 14 2 7 7 12 14 12 8 8 12 14 11 8 16 11 6 7 6 5 8 7 12 7 9 7 10 11 13
42 41 39 35 35 39 38 31 29 27 24 21 20 17 14 12 9 9 13 9 7 8 5 12 10 9 9 8 7 4 9 6 7 10 11 10 12 12 10 7 5 6 0 7 5 12 14
45 43 41 37 38 39 41 38 30 28 25 22 22 19 16 12 5 10 3 3 3 2 6 16 13 9 8 13 4 11 8 9 8 7 10 9 7 11 11 3 5 10 4 7 8 14 8
48 46 43 39 38 37 41 41 34 30 26 24 24 21 17 20 21 15 5 5 4 6 7 8 10 12 12 12 7 7 11 9 5 8 10 13 1 5 7 2 2 5 5 5 8 10 8
48 47 46 43 38 39 39 40 37 30 29 25 25 23 23 22 9 8 8 6 6 11 6 11 13 15 15 9 9 10 15 14 12 10 10 8 6 3 4 7 4 8 8 7 6 5 9
44 46 45 45 39 41 37 42 40 31 30 26 26 24 25 26 14 7 9 8 11 15 11 4 11 14 13 10 9 10 12 16 17 15 4 12 9 11 6 6 4 8 10 6 6 7 9
48 46 43 44 42 38 40 39 41 33 32 28 26 25 28 31 27 12 14 12 15 7 11 9 11 12 14 11 5 12 15 15 16 15 12 11 6 7 0 2 5 5 8 6 5 1 6
49 45 41 45 42 39 41 38 41 37 33 31 26 23 28 28 28 11 10 17 20 3 5 11 14 14 14 14 11 12 12 6 6 5 6 1 2 3 4 4 5 8 3 4 6 4 8
49 46 41 45 42 38 38 40 40 40 36 32 23 12 19 24 25 16 12 19 17 10 10 12 16 11 12 12 14 16 13 8 6 8 6 3 7 7 5 10 10 7 9 7 5 3 4
45 44 44 43 40 39 37 40 38 42 36 35 28 12 24 32 16 18 16 22 15 12 10 9 6 9 12 11 12 12 13 8 10 8 9 4 4 6 12 5 5 9 8 10 6 6 3
42 37 43 40 40 38 39 40 38 43 45 38 30 20 22 30 14 14 19 22 15 13 12 12 11 8 9 10 10 11 10 6 4 7 4 6 7 8 6 7 8 8 10 8 5 2 9
35 35 39 40 39 40 39 40 38 42 47 42 26 11 12 23 33 22 24 22 18 15 10 16 11 9 10 8 6 9 8 4 5 4 0 0 12 10 9 5 2 7 12 11 11 7 9
28 37 39 40 41 41 40 44 35 43 49 41 30 16 20 17 22 21 23 18 22 14 11 15 11 15 13 9 9 7 10 6 5 5 6 4 9 13 14 5 6 8 8 12 17 16 12
25 31 34 37 40 40 39 43 36 43 51 36 19 22 29 28 35 20 21 23 24 19 15 16 13 16 13 9 10 9 12 9 7 9 7 5 6 3 6 7 7 10 12 14 14 16 17
28 31 32 36 39 36 38 45 39 43 56 31 25 23 31 27 24 18 18 23 23 16 3 9 17 11 11 4 6 8 8 4 4 7 10 5 4 3 4 3 5 6 17 18 17 16 12
30 31 32 33 35 33 42 49 38 53 62 36 22 17 20 16 18 20 22 23 21 17 11 5 10 10 7 16 17 15 13 10 7 5 3 5 7 1 0 1 1 2 2 4 6 12 14
32 29 31 33 33 34 38 46 44 58 62 36 19 18 12 4 20 24 23 21 19 11 12 14 5 5 22 11 4 4 2 2 2 2 3 4 4 2 2 6 9 12 5 1 2 5 8
30 28 32 32 33 32 47 39 49 58 63 37 16 13 21 11 14 29 21 24 13 11 7 5 10 16 8 3 2 5 5 6 5 6 2 3 1 4 3 3 4 4 4 2 1 5 7
27 29 31 35 34 42 36 32 47 52 61 40 6 16 17 14 23 21 18 16 20 15 7 8 10 6 3 3 2 3 4 2 5 5 4 2 1 6 5 3 6 3 3 2 4 3 9
35 34 28 34 39 37 33 46 49 51 55 35 4 19 16 9 12 10 16 21 19 20 8 14 8 3 4 3 3 3 1 4 2 2 6 6 7 3 3 3 5 7 7 2 5 8 10
28 34 36 30 29 38 45 45 48 54 48 24 6 21 16 10 8 9 14 14 14 16 16 20 5 14 10 5 1 2 2 1 1 3 3 4 5 2 6 2 4 6 5 5 6 8 10
Wind_Direction
251 252 254 263 272 280 284 287 288 281 269 270 276 284 293 298 302 306 310 306 299 300 293 296 288 293 302 269 260 293 350 174 177 180 199 200 206 221 228 211 200 227 237 204 220 159 159
242 251 251 252 263 269 276 281 284 281 266 268 275 281 290 297 300 303 306 304 296 298 291 285 279 276 302 256 229 254 3 190 186 189 198 205 223 239 260 213 213 199 252 229 201 179 190
243 244 246 247 253 262 267 273 276 275 264 267 275 281 289 295 297 300 303 298 291 288 277 274 270 271 271 229 316 235 123 202 203 202 213 220 232 245 285 232 247 237 213 184 181 146 244
254 244 243 245 245 252 263 268 269 271 263 264 270 275 286 291 294 298 297 290 282 271 259 252 257 295 263 261 240 248 241 265 211 219 226 246 238 257 273 339 223 226 235 174 144 191 193
263 251 239 241 243 242 254 261 266 267 264 260 266 271 280 287 293 295 293 285 284 266 246 239 279 276 262 243 249 247 207 211 178 195 210 242 196 231 230 243 196 207 204 160 173 210 180
265 255 243 236 243 245 241 253 258 261 263 260 261 267 273 279 286 285 283 278 264 242 231 262 245 260 238 216 172 185 187 165 136 165 181 202 208 230 223 203 190 174 232 185 189 171 193
261 257 250 234 234 237 239 247 251 255 257 256 256 259 268 272 276 272 232 192 259 236 224 223 241 242 144 263 212 211 196 187 148 181 263 197 180 224 232 194 236 264 170 185 105 137 216
258 258 249 240 230 236 235 238 248 247 251 253 248 250 260 263 265 240 207 224 314 345 289 234 245 256 272 266 219 200 194 216 156 171 230 185 214 264 308 241 244 260 223 122 126 174 250
251 250 248 242 233 229 234 235 245 242 245 246 242 243 246 255 252 231 215 218 268 339 254 193 223 242 235 207 220 192 208 241 163 247 294 359 229 171 231 237 220 222 245 151 184 184 230
249 250 246 240 239 225 229 234 237 235 240 241 236 235 235 240 254 225 234 223 266 288 261 159 204 213 196 213 230 197 221 239 178 217 254 126 222 216 202 231 281 242 344 198 212 191 214
243 244 248 239 232 228 226 229 232 230 234 234 231 229 226 213 192 184 167 197 217 150 242 154 161 144 173 208 116 183 209 227 177 244 252 196 190 207 210 66 315 122 177 200 201 229 183
240 242 242 243 233 230 224 226 226 225 226 231 226 224 218 212 218 178 220 156 159 229 230 156 166 185 187 206 212 133 179 221 145 222 239 223 259 308 55 80 297 136 158 207 244 264 271
240 238 238 237 234 228 222 222 223 222 220 223 223 222 218 215 206 218 198 157 208 230 141 158 189 187 204 179 194 212 188 197 213 206 222 190 174 115 189 142 153 219 222 238 209 241 250
238 238 238 236 232 227 225 220 220 218 217 216 217 220 219 215 202 219 186 205 232 214 198 141 182 194 205 175 209 201 202 209 215 245 259 189 182 181 169 273 281 217 279 258 287 293 272
236 234 233 232 227 224 222 219 217 212 212 212 214 218 222 215 201 177 204 212 215 229 189 177 193 199 201 184 241 204 212 215 203 222 235 220 131 121 254 245 284 163 244 338 303 90 270
236 235 228 227 225 223 220 218 216 208 207 207 200 215 225 212 200 194 219 227 224 241 224 190 190 207 194 196 202 200 196 205 168 251 281 329 145 176 129 217 213 271 45 219 225 256 260
238 236 223 223 221 219 216 215 216 210 203 198 189 208 219 194 187 201 211 212 232 192 207 207 207 200 218 192 200 196 190 147 203 180 242 240 253 153 160 212 232 180 231 237 304 281 283
227 235 220 216 216 215 216 209 214 210 196 191 189 211 169 184 178 204 212 209 221 194 202 220 277 204 229 194 207 220 217 210 175 187 209 188 258 216 228 84 303 297 261 214 231 220 228
237 229 208 207 211 215 217 209 213 210 196 178 198 182 172 176 197 195 210 214 212 215 198 204 203 207 213 198 204 225 220 77 176 211 231 185 228 226 226 207 214 234 226 238 234 321 247
228 208 199 207 208 210 216 211 212 211 194 178 192 174 166 196 210 200 201 210 202 219 220 197 202 176 190 191 208 191 191 154 183 200 40 114 244 233 241 340 5 205 236 219 213 222 247
195 202 207 211 211 210 212 212 210 210 190 180 213 200 180 182 199 200 202 198 202 185 216 200 193 205 196 194 190 204 176 157 176 172 192 240 237 235 261 297 294 288 263 228 232 237 252
205 204 207 209 209 209 209 213 209 210 183 196 214 198 180 172 193 199 199 212 205 188 183 198 213 205 206 209 209 203 190 190 184 178 199 195 242 269 259 240 269 273 262 257 242 249 256
205 204 209 209 210 211 211 214 200 203 185 195 216 208 177 170 190 195 198 207 200 180 188 244 208 178 197 94 66 43 74 94 132 180 196 193 209 197 247 341 308 287 242 245 250 248 256
208 213 213 207 212 210 208 213 205 191 187 185 208 183 172 175 186 189 192 204 207 176 168 165 173 177 116 124 103 88 88 92 103 76 179 187 204 145 222 242 281 289 28 323 287 278 267
214 216 210 208 207 209 219 202 195 193 189 193 211 192 178 162 182 191 189 203 198 153 148 139 75 123 146 150 125 125 107 76 137 87 142 248 155 152 181 222 293 282 173 286 240 296 26
217 213 208 210 207 215 207 209 196 189 185 194 191 211 163 154 196 185 191 193 166 152 140 96 121 131 144 138 144 198 197 217 163 153 127 121 239 223 163 217 234 75 88 114 226 254 44
211 207 212 213 195 200 202 191 179 184 189 199 200 173 171 169 172 177 194 192 192 171 140 136 162 158 186 119 142 185 200 321 178 196 178 140 228 213 203 252 284 56 141 203 242 42 356
206 214 200 187 187 196 182 178 180 180 184 193 226 174 169 136 131 179 187 191 200 191 155 138 141 161 165 161 175 179 158 198 213 205 176 175 170 190 186 208 265 136 140 279 16 320 326
191 179 178 187 181 168 172 174 176 180 183 189 198 166 159 150 126 147 163 173 183 209 194 173 213 158 173 157 177 117 137 66 318 229 179 216 218 235 206 217 103 182 331 313 306 309 311
Height
1519 1521 1522 1524 1525 1525 1525 1524 1524 1524 1525 1525 1524 1524 1522 1521 1520 1519 1515 1514 1513 1510 1509 1508 1508 1507 1507 1508 1501 1497 1494 1495 1497 1499 1502 1502 1502 1498 1494 1492 1491 1491 1486 1488 1489 1487 1489
1512 1515 1516 1518 1520 1521 1521 1521 1521 1521 1522 1522 1522 1521 1520 1518 1517 1515 1513 1511 1510 1510 1509 1508 1508 1508 1507 1507 1499 1498 1495 1496 1498 1500 1501 1502 1499 1498 1493 1490 1489 1488 1488 1487 1491 1490 1493
1504 1508 1510 1512 1515 1516 1517 1517 1518 1518 1518 1519 1519 1519 1517 1515 1515 1513 1511 1509 1509 1509 1507 1507 1507 1508 1507 1501 1499 1498 1497 1499 1500 1500 1501 1501 1500 1501 1496 1492 1491 1491 1491 1491 1492 1494 1497
1496 1499 1503 1505 1508 1511 1512 1513 1514 1515 1515 1515 1516 1515 1515 1514 1512 1510 1509 1508 1507 1507 1507 1506 1507 1508 1504 1499 1500 1499 1499 1499 1498 1500 1501 1501 1501 1501 1498 1494 1492 1490 1487 1491 1491 1493 1492
1488 1490 1494 1499 1501 1504 1507 1508 1510 1511 1511 1512 1513 1512 1512 1511 1511 1509 1508 1509 1507 1507 1507 1506 1508 1509 1502 1497 1497 1497 1497 1498 1497 1499 1501 1500 1500 1500 1496 1494 1488 1489 1492 1489 1493 1489 1489
1480 1483 1485 1490 1494 1498 1501 1503 1505 1507 1508 1509 1509 1510 1509 1508 1509 1508 1507 1509 1508 1508 1506 1507 1507 1512 1498 1495 1495 1496 1497 1497 1497 1498 1501 1500 1498 1494 1489 1486 1502 1495 1485 1484 1487 1487 1484
1471 1475 1478 1481 1487 1492 1494 1498 1500 1502 1504 1505 1506 1507 1507 1507 1506 1507 1508 1510 1512 1508 1504 1500 1498 1495 1493 1494 1495 1495 1495 1497 1497 1496 1493 1495 1494 1493 1483 1484 1482 1478 1481 1479 1481 1489 1487
1462 1466 1470 1474 1478 1483 1487 1491 1495 1497 1499 1502 1503 1503 1505 1505 1504 1505 1506 1511 1508 1506 1500 1496 1497 1496 1494 1494 1493 1493 1494 1494 1494 1494 1491 1493 1499 1486 1487 1487 1485 1479 1481 1482 1487 1491 1492
1453 1456 1460 1465 1469 1475 1481 1484 1489 1493 1494 1497 1499 1501 1501 1503 1502 1503 1504 1506 1508 1505 1501 1491 1493 1493 1492 1493 1488 1487 1491 1487 1490 1492 1490 1501 1489 1491 1488 1485 1485 1481 1481 1483 1486 1490 1490
1444 1447 1450 1456 1461 1466 1472 1478 1482 1488 1490 1493 1496 1498 1498 1501 1505 1502 1503 1506 1505 1506 1496 1485 1488 1487 1489 1489 1487 1487 1489 1488 1488 1493 1490 1506 1493 1491 1485 1482 1481 1487 1481 1483 1485 1491 1494
1433 1437 1442 1446 1453 1458 1464 1471 1476 1482 1486 1489 1492 1494 1495 1500 1499 1501 1506 1506 1505 1508 1501 1473 1478 1483 1484 1486 1483 1487 1490 1488 1487 1488 1488 1502 1488 1485 1482 1483 1484 1497 1485 1484 1483 1480 1483
1420 1426 1431 1436 1443 1449 1455 1463 1470 1475 1480 1485 1488 1490 1493 1494 1496 1499 1501 1502 1506 1507 1493 1473 1474 1479 1482 1483 1483 1483 1487 1490 1489 1486 1485 1500 1488 1484 1483 1488 1487 1488 1488 1488 1485 1480 1495
1409 1415 1421 1427 1433 1439 1446 1455 1462 1468 1474 1478 1484 1487 1489 1492 1497 1497 1499 1503 1502 1495 1471 1470 1472 1473 1475 1477 1480 1481 1483 1486 1487 1494 1490 1485 1484 1489 1489 1490 1490 1487 1488 1499 1505 1500 1503
1397 1403 1410 1416 1423 1430 1438 1447 1454 1462 1470 1472 1478 1483 1485 1487 1491 1494 1498 1498 1493 1469 1466 1461 1466 1472 1474 1472 1476 1479 1477 1480 1479 1478 1483 1484 1497 1486 1488 1485 1485 1488 1484 1499 1512 1507 1493
1386 1391 1399 1407 1413 1421 1429 1438 1447 1453 1462 1467 1474 1477 1477 1480 1487 1491 1495 1488 1475 1461 1458 1463 1467 1472 1472 1471 1474 1476 1476 1475 1474 1476 1483 1478 1486 1486 1489 1489 1488 1486 1497 1486 1496 1509 1511
1374 1380 1387 1397 1405 1412 1420 1430 1439 1446 1455 1462 1469 1473 1472 1477 1485 1490 1487 1477 1464 1460 1458 1460 1468 1466 1470 1471 1477 1474 1475 1470 1476 1480 1477 1474 1487 1485 1492 1492 1492 1492 1487 1500 1498 1516 1512
1363 1370 1377 1386 1396 1405 1411 1421 1430 1438 1448 1459 1469 1471 1467 1473 1481 1486 1474 1468 1459 1463 1463 1461 1460 1465 1462 1466 1469 1471 1470 1476 1479 1481 1481 1476 1483 1491 1493 1491 1483 1492 1493 1493 1490 1494 1506
1352 1359 1366 1377 1387 1396 1404 1412 1422 1430 1443 1453 1462 1460 1461 1465 1475 1473 1465 1460 1460 1459 1463 1460 1460 1460 1463 1463 1468 1467 1468 1469 1478 1479 1481 1480 1480 1488 1487 1483 1486 1484 1483 1485 1501 1500 1500
1343 1347 1357 1369 1378 1389 1397 1404 1413 1421 1432 1444 1451 1452 1458 1462 1457 1460 1460 1456 1456 1457 1459 1460 1461 1460 1461 1464 1472 1468 1469 1481 1484 1482 1479 1483 1484 1493 1491 1488 1486 1486 1484 1484 1486 1496 1499
1335 1340 1351 1361 1371 1381 1389 1397 1405 1413 1426 1438 1442 1439 1450 1454 1454 1450 1452 1452 1457 1455 1454 1455 1456 1460 1463 1464 1466 1469 1472 1482 1486 1484 1487 1487 1481 1482 1490 1479 1473 1486 1482 1482 1488 1500 1494
1326 1336 1345 1355 1364 1374 1381 1388 1397 1405 1422 1434 1429 1419 1423 1431 1439 1441 1446 1449 1449 1452 1454 1456 1457 1459 1460 1466 1468 1470 1470 1482 1485 1487 1487 1486 1486 1480 1478 1481 1481 1480 1478 1481 1483 1482 1487
1325 1333 1341 1350 1358 1366 1374 1382 1390 1399 1418 1424 1415 1412 1420 1428 1439 1438 1440 1442 1443 1444 1449 1452 1452 1454 1455 1460 1464 1466 1468 1473 1475 1485 1484 1485 1485 1486 1490 1484 1486 1486 1480 1477 1475 1476 1475
1322 1329 1337 1343 1352 1358 1366 1374 1380 1393 1408 1412 1410 1411 1413 1421 1429 1434 1431 1437 1438 1440 1451 1448 1450 1451 1457 1461 1466 1468 1468 1470 1471 1477 1481 1483 1485 1492 1493 1492 1491 1502 1483 1476 1472 1471 1473
1318 1324 1331 1338 1344 1352 1360 1367 1372 1389 1396 1409 1409 1409 1407 1418 1420 1425 1430 1435 1435 1438 1446 1450 1449 1452 1466 1469 1471 1474 1475 1477 1479 1481 1480 1485 1486 1494 1496 1509 1515 1469 1470 1470 1472 1469 1467
1313 1319 1325 1334 1340 1345 1351 1358 1365 1383 1394 1404 1405 1408 1406 1419 1419 1426 1429 1434 1436 1441 1446 1451 1458 1459 1464 1467 1471 1479 1482 1487 1484 1484 1484 1484 1488 1499 1505 1492 1477 1470 1467 1475 1476 1473 1470
1308 1315 1320 1327 1333 1338 1347 1358 1366 1380 1390 1400 1399 1403 1405 1415 1417 1422 1427 1431 1435 1442 1452 1460 1462 1464 1466 1468 1472 1476 1479 1472 1480 1484 1488 1489 1489 1491 1500 1505 1506 1474 1476 1478 1477 1480 1477
1303 1311 1317 1321 1328 1336 1347 1353 1365 1378 1390 1395 1398 1401 1406 1410 1416 1422 1424 1428 1435 1438 1444 1459 1463 1466 1467 1468 1478 1474 1473 1469 1478 1484 1499 1495 1497 1497 1496 1498 1483 1469 1477 1479 1483 1484 1480
1302 1304 1311 1316 1327 1335 1344 1355 1367 1379 1388 1396 1399 1400 1405 1410 1418 1423 1426 1430 1433 1436 1443 1454 1460 1464 1465 1470 1471 1471 1476 1473 1473 1468 1481 1484 1489 1499 1493 1506 1499 1475 1478 1482 1480 1478 1479
1293 1303 1312 1316 1325 1337 1348 1358 1369 1378 1388 1397 1401 1400 1404 1411 1419 1423 1425 1428 1433 1436 1439 1448 1445 1451 1456 1458 1467 1470 1481 1485 1473 1476 1473 1478 1473 1475 1478 1475 1475 1477 1477 1478 1480 1480 1480